Change the Weather History Date:

Wednesday, March 6, 2013

  Actual Average Record
Temperature  
Mean Temperature 30 °F -  
Max Temperature 32 °F 34 °F 50 °F (2012)
Min Temperature 27 °F 24 °F -8 °F (2014)
Degree Days  
Heating Degree Days 36    
Moisture  
Dew Point 26 °F    
Average Humidity 84    
Maximum Humidity 96    
Minimum Humidity 74    
Precipitation  
Precipitation 0.00 in - - ()
Sea Level Pressure  
Sea Level Pressure 30.20 in    
Wind  
Wind Speed 8 mph (NNE)    
Max Wind Speed 17 mph    
Max Gust Speed 22 mph    
Visibility 9 miles    
Events Snow    
Averages and records for this station are not official NWS values.
T = Trace of Precipitation, MM = Missing Value Source: NWS Daily Summary

Daily Weather History Graph

Daily Weather History Graph

Search for Another Location

Airport or City:

Trip Planner

Search our weather history database for the weather conditions in past years. The results will help you decide how hot, cold, wet, or windy it might be!

Date:

Astronomy

Mar. 06, 2013 Rise Set
Actual Time 7:09 AM EST 6:35 PM EST
Civil Twilight 6:40 AM EST 7:04 PM EST
Nautical Twilight 6:06 AM EST 7:39 PM EST
Astronomical Twilight 5:31 AM EST 8:13 PM EST
Moon 3:30 AM EST (3/6) 1:04 PM EST (3/6)
Length of Visible Light 12h 24m
Length of Day
11h 25m
Waning Crescent, 30% of the Moon is Illuminated
Mar 6
Waning Crescent
Mar 11
New
Mar 19
First Quarter
Mar 27
Full
Apr 3
Last Quarter

Hourly Weather History & Observations

Time (EST) Temp. Windchill Dew Point Humidity Pressure Visibility Wind Dir Wind Speed Gust Speed Precip Events Conditions
12:15 AM 28.2 °F 21.0 °F 20.8 °F 74% 30.09 in 10.0 mi NNE 6.9 mph - N/A   Overcast
12:34 AM 28.9 °F 21.9 °F 21.7 °F 74% 30.09 in 10.0 mi NNE 6.9 mph - N/A   Overcast
12:55 AM 29.1 °F 21.3 °F 22.1 °F 75% 30.09 in 10.0 mi NE 8.1 mph - N/A   Overcast
1:14 AM 29.3 °F 21.5 °F 22.1 °F 75% 30.10 in 10.0 mi NE 8.1 mph - N/A   Overcast
1:34 AM 29.3 °F 21.5 °F 22.5 °F 76% 30.10 in 10.0 mi ENE 8.1 mph - N/A   Overcast
1:55 AM 29.3 °F 21.5 °F 23.0 °F 77% 30.10 in 10.0 mi NE 8.1 mph - N/A   Overcast
2:14 AM 29.3 °F 21.5 °F 23.4 °F 78% 30.11 in 10.0 mi ENE 8.1 mph - N/A   Overcast
2:35 AM 29.5 °F 23.4 °F 23.7 °F 79% 30.12 in 10.0 mi ENE 5.8 mph - N/A   Overcast
2:54 AM 29.3 °F 22.3 °F 23.9 °F 80% 30.11 in 10.0 mi ENE 6.9 mph - N/A   Overcast
3:14 AM 29.7 °F 22.8 °F 24.3 °F 80% 30.11 in 10.0 mi East 6.9 mph - N/A   Overcast
3:35 AM 29.3 °F 22.3 °F 24.4 °F 82% 30.11 in 10.0 mi East 6.9 mph - N/A   Mostly Cloudy
3:54 AM 29.3 °F 23.2 °F 24.3 °F 81% 30.11 in 10.0 mi ENE 5.8 mph - N/A   Overcast
4:15 AM 29.1 °F 20.6 °F 24.3 °F 82% 30.12 in 10.0 mi ENE 9.2 mph - N/A   Overcast
4:35 AM 29.3 °F 20.8 °F 24.3 °F 81% 30.13 in 10.0 mi ENE 9.2 mph - N/A   Overcast
4:54 AM 28.6 °F 19.3 °F 23.9 °F 83% 30.13 in 10.0 mi ENE 10.4 mph 16.1 mph N/A   Scattered Clouds
5:15 AM 28.6 °F 20.7 °F 23.9 °F 83% 30.14 in 10.0 mi ENE 8.1 mph - N/A   Scattered Clouds
5:34 AM 28.9 °F 23.9 °F 24.3 °F 83% 30.15 in 10.0 mi ENE 4.6 mph - N/A   Overcast
5:55 AM 29.1 °F 24.1 °F 24.3 °F 82% 30.17 in 10.0 mi NE 4.6 mph - N/A   Overcast
6:14 AM 29.3 °F 24.3 °F 24.6 °F 83% 30.17 in 10.0 mi NE 4.6 mph - N/A   Overcast
6:34 AM 29.8 °F 24.9 °F 24.8 °F 81% 30.18 in 10.0 mi NE 4.6 mph - N/A   Overcast
6:54 AM 29.8 °F 23.0 °F 25.2 °F 83% 30.18 in 10.0 mi NE 6.9 mph - N/A   Overcast
7:14 AM 30.0 °F 24.1 °F 25.5 °F 83% 30.18 in 10.0 mi NE 5.8 mph - N/A   Overcast
7:35 AM 30.2 °F 22.6 °F 25.5 °F 83% 30.19 in 10.0 mi NE 8.1 mph - N/A   Overcast
7:54 AM 30.9 °F 25.2 °F 25.7 °F 81% 30.20 in 10.0 mi North 5.8 mph - N/A   Overcast
8:15 AM 31.1 °F 24.5 °F 25.7 °F 80% 30.20 in 10.0 mi NE 6.9 mph - N/A   Overcast
8:35 AM 31.6 °F 24.4 °F 26.1 °F 80% 30.19 in 10.0 mi NE 8.1 mph - N/A   Overcast
8:54 AM 32.0 °F 24.2 °F 25.7 °F 78% 30.19 in 10.0 mi NE 9.2 mph - N/A   Mostly Cloudy
9:15 AM 32.2 °F 24.4 °F 26.6 °F 80% 30.19 in 10.0 mi NNE 9.2 mph - N/A   Clear
9:34 AM 31.5 °F 24.2 °F 26.6 °F 82% 30.20 in 10.0 mi North 8.1 mph - N/A   Clear
9:55 AM 31.6 °F 24.4 °F 26.6 °F 82% 30.20 in 10.0 mi North 8.1 mph - N/A   Mostly Cloudy
10:15 AM 32.0 °F 24.2 °F 26.8 °F 81% 30.20 in 10.0 mi North 9.2 mph - N/A   Scattered Clouds
10:34 AM 32.0 °F 24.2 °F 27.0 °F 82% 30.21 in 10.0 mi North 9.2 mph - N/A   Mostly Cloudy
10:55 AM 32.0 °F 24.8 °F 26.8 °F 81% 30.22 in 10.0 mi North 8.1 mph - N/A   Overcast
11:14 AM 32.2 °F 23.8 °F 26.8 °F 80% 30.21 in 10.0 mi North 10.4 mph - N/A   Overcast
11:35 AM 32.0 °F 23.6 °F 27.0 °F 82% 30.21 in 10.0 mi North 10.4 mph - N/A   Overcast
11:54 AM 32.0 °F 24.8 °F 26.6 °F 80% 30.22 in 10.0 mi North 8.1 mph - N/A   Overcast
12:14 PM 32.0 °F 24.8 °F 27.1 °F 82% 30.22 in 10.0 mi North 8.1 mph - N/A   Overcast
12:35 PM 32.2 °F 25.0 °F 27.3 °F 82% 30.22 in 10.0 mi North 8.1 mph - N/A   Overcast
12:53 PM 32.2 °F 24.4 °F 27.1 °F 82% 30.22 in 10.0 mi North 9.2 mph - N/A   Overcast
1:15 PM 32.5 °F 24.8 °F 27.5 °F 82% 30.22 in 10.0 mi North 9.2 mph - N/A   Overcast
1:34 PM 32.2 °F 25.0 °F 27.5 °F 83% 30.22 in 10.0 mi North 8.1 mph - N/A   Overcast
1:55 PM 32.2 °F 23.8 °F 27.7 °F 83% 30.21 in 10.0 mi North 10.4 mph - N/A   Overcast
2:14 PM 32.0 °F 23.6 °F 27.5 °F 83% 30.21 in 10.0 mi North 10.4 mph - N/A   Overcast
2:35 PM 32.2 °F 23.8 °F 27.5 °F 83% 30.21 in 10.0 mi North 10.4 mph - N/A   Overcast
2:55 PM 32.4 °F 23.5 °F 27.9 °F 83% 30.21 in 10.0 mi North 11.5 mph - N/A   Overcast
3:14 PM 32.4 °F 25.3 °F 27.9 °F 83% 30.22 in 10.0 mi North 8.1 mph - N/A   Overcast
3:35 PM 32.4 °F 26.9 °F 27.5 °F 82% 30.22 in 10.0 mi North 5.8 mph - N/A   Overcast
3:55 PM 32.4 °F 24.6 °F 27.3 °F 82% 30.22 in 10.0 mi North 9.2 mph - N/A   Overcast
4:14 PM 32.2 °F 25.0 °F 27.7 °F 83% 30.22 in 10.0 mi North 8.1 mph - N/A   Overcast
4:35 PM 32.2 °F 24.4 °F 27.5 °F 83% 30.22 in 10.0 mi North 9.2 mph - N/A   Overcast
5:14 PM 32.0 °F 24.2 °F 27.5 °F 83% 30.22 in 10.0 mi North 9.2 mph - N/A   Mostly Cloudy
5:35 PM 32.0 °F 24.8 °F 29.1 °F 89% 30.22 in 10.0 mi North 8.1 mph - N/A   Overcast
5:54 PM 32.0 °F 24.2 °F 29.5 °F 90% 30.22 in 10.0 mi North 9.2 mph - N/A   Overcast
6:15 PM 32.0 °F 24.2 °F 30.2 °F 93% 30.23 in 10.0 mi North 9.2 mph - N/A   Overcast
6:35 PM 32.0 °F 24.8 °F 30.2 °F 93% 30.23 in 10.0 mi North 8.1 mph - N/A   Overcast
6:54 PM 32.0 °F 24.8 °F 30.6 °F 94% 30.24 in 4.0 mi North 8.1 mph - N/A Snow Light Snow
7:15 PM 31.8 °F 25.4 °F 30.7 °F 96% 30.24 in 5.0 mi North 6.9 mph - N/A Snow Light Snow
7:35 PM 31.5 °F 22.9 °F 30.2 °F 95% 30.24 in 5.0 mi North 10.4 mph - N/A Snow Light Snow
7:54 PM 31.6 °F 24.4 °F 30.6 °F 96% 30.25 in 5.0 mi NNW 8.1 mph - N/A Snow Light Snow
8:15 PM 31.1 °F 21.9 °F 30.2 °F 96% 30.25 in 4.0 mi North 11.5 mph 16.1 mph N/A Snow Light Snow
8:34 PM 30.2 °F 20.8 °F 29.1 °F 96% 30.25 in 3.0 mi North 11.5 mph 20.7 mph N/A Snow Light Snow
8:55 PM 30.2 °F 20.2 °F 28.9 °F 95% 30.25 in 3.0 mi NNW 12.7 mph 19.6 mph N/A Snow Light Snow
9:34 PM 29.3 °F 18.6 °F 27.7 °F 94% 30.27 in 3.0 mi North 13.8 mph 19.6 mph N/A Snow Light Snow
9:55 PM 29.3 °F 19.1 °F 27.5 °F 93% 30.27 in 5.0 mi NNW 12.7 mph 17.3 mph N/A Snow Light Snow
10:15 PM 28.4 °F 17.5 °F 26.1 °F 91% 30.28 in 4.0 mi NNW 13.8 mph 20.7 mph N/A Snow Light Snow
10:34 PM 28.2 °F 15.9 °F 24.8 °F 87% 30.27 in 7.0 mi North 17.3 mph 21.9 mph N/A   Overcast
10:55 PM 28.0 °F 17.0 °F 23.9 °F 84% 30.28 in 10.0 mi North 13.8 mph 19.6 mph N/A   Overcast
11:15 PM 27.9 °F 17.8 °F 23.9 °F 85% 30.28 in 10.0 mi NNW 11.5 mph - N/A Snow Light Snow
11:34 PM 27.5 °F 16.3 °F 22.6 °F 82% 30.29 in 10.0 mi NNW 13.8 mph 18.4 mph N/A   Overcast
11:55 PM 27.5 °F 18.0 °F 23.5 °F 85% 30.29 in 10.0 mi NNW 10.4 mph 17.3 mph N/A   Overcast